User: anonymous   Login
Location: Unspecified
(0.0000°N, 0.0000°E)
Time: 19:09:57
(UTC+00:00)
Language:

SL-12 R/B(2) - Orbit

View from above orbital plane
View from above orbital plane
View from above satellite
View from above satellite

Ground track
Ground track

The orbit data is extracted from the following two-line orbital elements,

1 26486U 00051D   20222.40528252 -.00000186  00000-0  00000+0 0  9993
2 26486  62.7603  48.4732 7513092 269.1244  12.0447  1.45764461106064
Epoch (UTC): 09 August 2020 09:43:36
Eccentricity: 0.7513092
inclination: 62.7603°
perigee height: 1793 km
apogee height: 51165 km
right ascension of ascending node: 48.4732°
argument of perigee: 269.1244°
revolutions per day: 1.45764461
mean anomaly at epoch: 12.0447°
orbit number at epoch: 10606

The dashed part of the orbit path shows where the satellite is in the earth's shadow,  

DLR